TRA3L EHRD-LEMG

Flight info

Callsign TRA3L
Flight time N/A
Altitude 35000
Route EHRD/06 WOODY N872 CIV DCT KOVIN DCT DUCRA DCT RESMI DCT DEKOD DCT DISAK DCT ARKIP DCT ARNAV DCT LMG DCT UVELI DCT OSMOB DCT ARVID DCT PPN DCT NOLSA DCT ALEPO DCT VASUM N10 BAN DCT GOTOR DCT KAMPO DCT MONTO DCT CRISA DCT VULPE
Aircraft A321/M-SDE3FGHIRWY/LB1

Departure

Time 2026-05-01 13:54
Airport Rotterdam The Hague Airport (EHRD)

Arrival

Time N/A
Airport Málaga-Costa del Sol Airport (LEMG)
Time Latitude Longitude Altitude Speed Heading
2026-05-01 13:21 51.94914 4.43532 -6 ft 0 kts 327°
2026-05-01 13:47 51.94921 4.43524 -6 ft 5 kts 327°
2026-05-01 13:47 51.94974 4.43552 -6 ft 11 kts 50°
2026-05-01 13:47 51.95019 4.43641 -6 ft 9 kts 23°
2026-05-01 13:48 51.95072 4.43616 -6 ft 7 kts 330°
2026-05-01 13:48 51.95111 4.43573 -6 ft 6 kts 326°
2026-05-01 13:48 51.95150 4.43531 -6 ft 9 kts 326°
2026-05-01 13:48 51.95219 4.43458 -5 ft 11 kts 327°
2026-05-01 13:49 51.95223 4.43358 -5 ft 9 kts 242°
2026-05-01 13:49 51.95191 4.43277 -5 ft 8 kts 235°
2026-05-01 13:49 51.95163 4.43207 -5 ft 7 kts 239°
2026-05-01 13:49 51.95143 4.43145 -5 ft 6 kts 242°
2026-05-01 13:50 51.95126 4.43091 -5 ft 6 kts 245°
2026-05-01 13:50 51.95111 4.43030 -5 ft 3 kts 253°
2026-05-01 13:50 51.95110 4.43022 -5 ft 0 kts 256°
2026-05-01 13:52 51.95109 4.43011 -5 ft 5 kts 259°
2026-05-01 13:52 51.95141 4.42912 -5 ft 16 kts 319°
2026-05-01 13:52 51.95228 4.42883 -5 ft 13 kts 41°
2026-05-01 13:52 51.95256 4.42940 -5 ft 0 kts 57°
2026-05-01 13:53 51.95286 4.43023 -5 ft 26 kts 59°
2026-05-01 13:53 51.95993 4.44794 1 ft 150 kts 58°
2026-05-01 13:53 51.96572 4.46283 459 ft 157 kts 60°
2026-05-01 13:54 51.97183 4.47824 958 ft 170 kts 59°
2026-05-01 13:54 51.97830 4.49511 1437 ft 178 kts 61°
2026-05-01 13:54 51.98433 4.51264 2072 ft 176 kts 65°
2026-05-01 13:54 51.99003 4.53028 2687 ft 182 kts 64°
2026-05-01 13:55 51.99674 4.54956 2856 ft 209 kts 63°
2026-05-01 13:55 52.00423 4.57102 3214 ft 225 kts 69°
2026-05-01 13:55 52.00752 4.59542 3820 ft 226 kts 101°
2026-05-01 13:55 52.00106 4.61895 4182 ft 239 kts 137°
2026-05-01 13:56 51.98734 4.63394 4781 ft 247 kts 152°
2026-05-01 13:56 51.97178 4.64689 5150 ft 254 kts 154°
2026-05-01 13:56 51.95583 4.65921 5289 ft 255 kts 156°
2026-05-01 13:56 51.93863 4.66555 6015 ft 258 kts 179°
2026-05-01 13:57 51.92095 4.65934 6813 ft 264 kts 204°
2026-05-01 13:57 51.90646 4.64069 7549 ft 273 kts 229°
2026-05-01 13:57 51.89540 4.61527 8279 ft 277 kts 232°
2026-05-01 13:57 51.88441 4.58941 8984 ft 280 kts 230°
2026-05-01 13:58 51.87098 4.56670 9685 ft 279 kts 214°
2026-05-01 13:58 51.85435 4.55102 10381 ft 277 kts 199°
2026-05-01 13:58 51.83568 4.54222 10858 ft 288 kts 192°
2026-05-01 13:58 51.81572 4.53395 10996 ft 310 kts 197°
2026-05-01 13:59 51.79434 4.52417 11225 ft 327 kts 197°
2026-05-01 13:59 51.77198 4.51395 11603 ft 338 kts 197°
2026-05-01 13:59 51.74923 4.50414 12006 ft 343 kts 195°
2026-05-01 13:59 51.73741 4.49954 12229 ft 347 kts 194°
2026-05-01 14:00 51.71820 4.49220 12643 ft 352 kts 194°
2026-05-01 14:00 51.69449 4.48283 13423 ft 348 kts 195°
2026-05-01 14:00 51.67115 4.47332 14318 ft 342 kts 195°
2026-05-01 14:00 51.64820 4.46387 15127 ft 336 kts 196°
2026-05-01 14:01 51.62609 4.45480 16401 ft 316 kts 196°
2026-05-01 14:01 51.60561 4.44593 17663 ft 294 kts 198°
2026-05-01 14:01 51.58648 4.43689 18752 ft 277 kts 199°
2026-05-01 14:01 51.56862 4.42800 19439 ft 272 kts 200°
2026-05-01 14:02 51.55036 4.42186 19975 ft 266 kts 190°
2026-05-01 14:02 51.53204 4.41833 20454 ft 265 kts 195°
2026-05-01 14:02 51.51387 4.41195 20826 ft 268 kts 196°
2026-05-01 14:02 51.49532 4.40637 21059 ft 275 kts 196°
2026-05-01 14:03 51.47651 4.39918 21363 ft 278 kts 201°
2026-05-01 14:03 51.45798 4.38921 21640 ft 284 kts 205°
2026-05-01 14:03 51.43925 4.37778 21922 ft 290 kts 203°
2026-05-01 14:03 51.41990 4.36751 22238 ft 294 kts 200°
2026-05-01 14:04 51.40053 4.35672 22650 ft 295 kts 206°
2026-05-01 14:04 51.38171 4.34340 23070 ft 295 kts 207°
2026-05-01 14:04 51.36313 4.33078 23331 ft 285 kts 210°
2026-05-01 14:04 51.34496 4.31772 23452 ft 288 kts 208°
2026-05-01 14:05 51.32595 4.30476 23161 ft 314 kts 206°
2026-05-01 14:05 51.30560 4.29004 22985 ft 336 kts 208°
2026-05-01 14:05 51.28403 4.27337 22979 ft 352 kts 208°
2026-05-01 14:05 51.26155 4.25595 23037 ft 366 kts 208°
2026-05-01 14:06 51.23829 4.23806 23185 ft 376 kts 207°
2026-05-01 14:06 51.21431 4.21977 23330 ft 386 kts 207°
2026-05-01 14:06 51.18959 4.20192 23463 ft 395 kts 204°
2026-05-01 14:06 51.16330 4.18839 23718 ft 400 kts 194°
2026-05-01 14:07 51.13655 4.17642 24266 ft 396 kts 202°
2026-05-01 14:07 51.11159 4.15922 25077 ft 385 kts 210°
2026-05-01 14:07 51.08874 4.13908 26167 ft 363 kts 210°
2026-05-01 14:08 51.08222 4.13384 26402 ft 362 kts 208°
2026-05-01 14:08 51.06668 4.12308 26547 ft 366 kts 204°